Tracking 22458 objects as of 2-Mar-2021
HD Live streaming from Space Station
objects crossing your sky now

OPS 5798 DEB

Track OPS 5798 DEB now!
10-day predictions


NORAD ID: 903
Int'l Code: 1964-063F
Perigee: 966.9 km
Apogee: 997.5 km
Inclination: 90.2 °
Period: 104.6 minutes
Semi major axis: 7353 km
RCS: 0.0502 m2 (small)
Launch date: October 6, 1964
Source: United States (US)
Launch site: AIR FORCE WESTERN TEST RANGE (AFWTR)

Note: This is SATELLITE DEBRIS
aabbcc
Your satellite tracking list
Your tracking list is empty




NASA's NSSDC Master Catalog

Two Line Element Set (TLE):
1 00903U 64063F   21060.90260744  .00000293  00000-0  28767-3 0  9999
2 00903  90.1642  31.1981 0020829 207.4369 206.3995 13.76863437808043
Source of the keplerian elements: AFSPC